Tracking 20232 objects as of 19-Jan-2020
HD Live streaming from Space Station
objects crossing your sky now

NIMBUS 2


NIMBUS 2 is no longer on orbit


NORAD ID: 2173
Int'l Code: 1966-040A
Perigee: N/A
Apogee: N/A
Inclination: N/A
Period: N/A
Semi major axis: N/A
RCS: N/A
Launch date: May 15, 1966
Source: United States (US)
Launch site: AIR FORCE WESTERN TEST RANGE (AFWTR)
Decay date: 1969-01-17
aabbcc
Your satellite tracking list
Your tracking list is empty




NASA's NSSDC Master Catalog

Two Line Element Set (TLE):
1  2173U 66040A   20018.40847997 -.00000048 +00000-0 -39368-5 0  9996
2  2173 100.3963 144.5828 0055444 023.3246 018.8549 13.33558772611941
Source of the keplerian elements: AFSPC